TITAN 3C TRANSTAGE DEB, 1716

Orbit data source: Space-Track

TITAN 3C TRANSTAGE DEB, 1716 is space debris in LEO originally from a launch on Fri, 15 Oct 1965 UTC launched from the Air Force Eastern Test Range (AFETR). Debris objects in space refer to the collection of defunct objects orbiting the Earth. Examples of debris include non-operational satellites, rocket bodies, and fragments generated from explosions, collisions, or faulty payload assembly.

Loading next visibility...
Identifier
1716, 1965-082BX
Orbit
LEO
Country
Flag of USUS
Related business
Manufacturer
Unknown
Mission
Spacecraft
Bus & Motor
Unknown
Mass
Unknown
Launch date (UTC)
1965-10-15 (61 years ago)
Launch vehicle
Unknown
Launch site
Air Force Eastern Test Range (AFETR)
Object type
Payload
Rocket body
Debris
Shape & HBR
Unknown shape, 0.9 m
Radar Cross Section
Large (>1 m²)

Expand to show TLE details & history
Last TLE update: 11 hours ago

TLE from 11 hours ago
0 TITAN 3C TRANSTAGE DEB
1 01716U 65082BX  26119.39468229  .00000675  00000-0  13671-3 0  9997
2 01716  32.1896 234.2864 0038204 242.6342 117.0411 14.57541668201370
Epoch: 2026-04-29T09:28Z
TLE epoch observation values (Epoch: 2026-04-29T09:28:20.549Z)
Latitude
-0.00005°
Longitude
-125.15557°
Altitude
712.156 km
Speed
7.495 km/s
True Right ascension
15h 37m 08s
True Declination
0° 00' 00"
Sunlit
Object was in full shadow at epoch
Visualization orbit readout
Latitude
Unknown
Longitude
Unknown
Altitude
Unknown
Speed
Unknown
Apparent Right ascension
Unknown
Apparent Declination
Unknown
Sunlit
N/A
Visualization observer readout
Local Sidereal Time
03:42:58
Azimuth
Unknown
Elevation
Unknown
Doppler factor
Unknown
Orbital elements
Apogee altitude
731.761 km
Perigee altitude
677.642 km
Semi-major axis
7,082.839 km
Eccentricity
0.00382
Inclination
32.1896°
RAAN
234.2864°
Arg. of periapsis
242.6342°
True anomaly
117.43018°
Mean anomaly
117.0411°
Eccentric anomaly
117.23572°
Mean motion
3.6411 °/min
Orbital period
98.87 mins
BSTAR
0.00013671

Documentation

Showing up to 5 results
|